| time (UTC) | temp C | wind direction | speed KPH | gust KPH | rain 1hr cm | rain 24hr cm | rain mn cm | humidity % | barometer mb |
| 20260506213959 | 16 | 131 | 3.2 | 3.2 | 0.00 | 2.59 | 2.59 | 77 | 1011.4 |
| 20260506210958 | 16 | 170 | 1.6 | 3.2 | 0.00 | 2.59 | 2.59 | 77 | 1011.3 |
| 20260506205958 | 16 | 184 | 1.6 | 6.4 | 0.00 | 2.59 | 2.59 | 77 | 1011.2 |
| 20260506205002 | 16 | 0 | 1.6 | 0.0 | 0.00 | 2.59 | 2.59 | 77 | 1011.3 |
| 20260506203958 | 16 | 0 | 0.0 | 0.0 | 0.00 | 2.59 | 2.59 | 77 | 1011.2 |
| 20260506202959 | 16 | 0 | 0.0 | 0.0 | 0.00 | 2.59 | 2.59 | 78 | 1011.2 |
| 20260506201959 | 16 | 210 | 0.0 | 4.8 | 0.00 | 2.59 | 2.59 | 78 | 1011.1 |
| 20260506200958 | 16 | 89 | 0.0 | 6.4 | 0.00 | 2.59 | 2.59 | 78 | 1011.1 |
| 20260506200008 | 16 | 0 | 1.6 | 0.0 | 0.00 | 2.59 | 2.59 | 78 | 1010.9 |
| 20260506194959 | 16 | 0 | 1.6 | 0.0 | 0.00 | 2.59 | 2.59 | 78 | 1010.7 |
| 20260506193959 | 16 | 163 | 4.8 | 8.0 | 0.00 | 2.59 | 2.59 | 78 | 1010.5 |
| 20260506193002 | 16 | 168 | 9.7 | 17.7 | 0.00 | 2.59 | 2.59 | 78 | 1010.5 |
| 20260506191958 | 16 | 168 | 3.2 | 16.1 | 0.00 | 2.59 | 2.59 | 79 | 1010.3 |
| 20260506185959 | 16 | 208 | 3.2 | 1.6 | 0.00 | 2.59 | 2.59 | 80 | 1010.0 |
| 20260506184000 | 16 | 139 | 3.2 | 8.0 | 0.00 | 2.59 | 2.59 | 79 | 1009.8 |
| 20260506183000 | 16 | 170 | 4.8 | 25.7 | 0.00 | 2.59 | 2.59 | 79 | 1009.7 |
| 20260506182005 | 16 | 158 | 1.6 | 3.2 | 0.00 | 2.59 | 2.59 | 79 | 1009.6 |
| 20260506180003 | 16 | 98 | 3.2 | 6.4 | 0.00 | 2.59 | 2.59 | 78 | 1009.3 |
| 20260506174959 | 16 | 122 | 3.2 | 14.5 | 0.00 | 2.59 | 2.59 | 78 | 1009.2 |
| 20260506173002 | 16 | 158 | 3.2 | 11.3 | 0.00 | 2.59 | 2.59 | 78 | 1009.3 |
| 20260506171000 | 16 | 185 | 4.8 | 12.9 | 0.00 | 2.59 | 2.59 | 79 | 1009.1 |
| 20260506165959 | 16 | 147 | 4.8 | 11.3 | 0.00 | 2.59 | 2.59 | 78 | 1009.1 |
| 20260506162958 | 17 | 216 | 0.0 | 1.6 | 0.00 | 2.59 | 2.59 | 78 | 1009.1 |
| 20260506162008 | 17 | 149 | 3.2 | 4.8 | 0.00 | 2.59 | 2.59 | 78 | 1009.0 |
| 20260506160003 | 17 | 236 | 4.8 | 17.7 | 0.00 | 2.59 | 2.59 | 77 | 1008.9 |
| 20260506155006 | 17 | 139 | 4.8 | 19.3 | 0.00 | 2.59 | 2.59 | 76 | 1008.9 |
| 20260506154007 | 17 | 188 | 11.3 | 11.3 | 0.00 | 2.59 | 2.59 | 77 | 1008.8 |
| 20260506151959 | 18 | 164 | 3.2 | 12.9 | 0.00 | 2.59 | 2.59 | 76 | 1008.6 |
| 20260506151002 | 18 | 222 | 8.0 | 14.5 | 0.00 | 2.59 | 2.59 | 75 | 1008.8 |
| 20260506150017 | 18 | 195 | 4.8 | 8.0 | 0.00 | 2.59 | 2.59 | 76 | 1008.8 |
| 20260506145021 | 18 | 214 | 3.2 | 8.0 | 0.00 | 2.59 | 2.59 | 75 | 1008.7 |
| 20260506144018 | 18 | 117 | 6.4 | 6.4 | 0.00 | 2.59 | 2.59 | 76 | 1008.7 |
| 20260506140959 | 18 | 203 | 9.7 | 14.5 | 0.00 | 2.59 | 2.59 | 74 | 1008.7 |
| 20260506140001 | 18 | 207 | 9.7 | 14.5 | 0.00 | 2.59 | 2.59 | 74 | 1008.6 |
| 20260506134959 | 18 | 225 | 12.9 | 22.5 | 0.00 | 2.59 | 2.59 | 73 | 1008.8 |
| 20260506133000 | 18 | 205 | 11.3 | 14.5 | 0.00 | 2.59 | 2.59 | 73 | 1008.9 |
| 20260506132000 | 18 | 197 | 11.3 | 27.4 | 0.00 | 2.59 | 2.59 | 76 | 1008.9 |
| 20260506131008 | 18 | 229 | 8.0 | 27.4 | 0.00 | 2.59 | 2.59 | 77 | 1008.8 |
| 20260506124959 | 18 | 206 | 8.0 | 25.7 | 0.00 | 2.59 | 2.59 | 77 | 1008.7 |
| 20260506124000 | 18 | 187 | 4.8 | 17.7 | 0.00 | 2.59 | 2.59 | 79 | 1008.7 |
| 20260506122959 | 18 | 222 | 3.2 | 9.7 | 0.00 | 2.59 | 2.59 | 80 | 1008.7 |
| 20260506120000 | 17 | 189 | 6.4 | 24.1 | 0.00 | 2.59 | 2.59 | 82 | 1008.6 |
| 20260506114959 | 17 | 197 | 6.4 | 19.3 | 0.00 | 2.59 | 2.59 | 82 | 1008.6 |
| 20260506113959 | 17 | 218 | 6.4 | 20.9 | 0.00 | 2.59 | 2.59 | 81 | 1008.6 |
| 20260506112959 | 17 | 170 | 6.4 | 17.7 | 0.00 | 2.59 | 2.59 | 83 | 1008.5 |
| 20260506112005 | 17 | 200 | 4.8 | 17.7 | 0.00 | 2.59 | 2.59 | 82 | 1008.6 |
| 20260506110959 | 17 | 231 | 3.2 | 1.6 | 0.00 | 2.59 | 2.59 | 83 | 1008.6 |
| 20260506110001 | 17 | 225 | 8.0 | 20.9 | 0.00 | 2.59 | 2.59 | 82 | 1008.6 |
| 20260506102013 | 18 | 188 | 1.6 | 9.7 | 0.00 | 2.59 | 2.59 | 82 | 1008.6 |
| 20260506101000 | 17 | 236 | 1.6 | 8.0 | 0.00 | 2.59 | 2.59 | 83 | 1008.6 |
| 20260506100003 | 17 | 210 | 1.6 | 19.3 | 0.00 | 2.59 | 2.59 | 83 | 1008.7 |
| 20260506094959 | 17 | 0 | 0.0 | 0.0 | 0.00 | 2.59 | 2.59 | 83 | 1008.6 |
| 20260506094002 | 17 | 218 | 1.6 | 1.6 | 0.00 | 2.62 | 2.59 | 83 | 1008.6 |
| 20260506093000 | 17 | 154 | 1.6 | 14.5 | 0.00 | 2.62 | 2.59 | 83 | 1008.6 |
| 20260506091959 | 17 | 202 | 1.6 | 6.4 | 0.00 | 2.62 | 2.59 | 82 | 1008.4 |
| 20260506090003 | 17 | 202 | 3.2 | 11.3 | 0.00 | 2.62 | 2.59 | 83 | 1008.3 |
| 20260506084002 | 16 | 239 | 1.6 | 12.9 | 0.00 | 2.62 | 2.59 | 87 | 1008.0 |
| 20260506082959 | 16 | 216 | 3.2 | 8.0 | 0.00 | 2.62 | 2.59 | 88 | 1008.0 |
| 20260506082000 | 16 | 189 | 4.8 | 16.1 | 0.00 | 2.62 | 2.59 | 89 | 1007.9 |
| 20260506081000 | 16 | 184 | 8.0 | 11.3 | 0.00 | 2.62 | 2.59 | 89 | 1007.7 |
| 20260506072000 | 16 | 206 | 11.3 | 33.8 | 0.38 | 2.62 | 2.59 | 91 | 1007.2 |
| 20260506071007 | 16 | 203 | 8.0 | 33.8 | 0.38 | 2.62 | 2.59 | 91 | 1007.2 |
| 20260506061959 | 16 | 168 | 4.8 | 22.5 | 0.00 | 2.31 | 2.21 | 87 | 1007.0 |
| 20260506061003 | 15 | 102 | 3.2 | 14.5 | 0.00 | 2.41 | 2.21 | 89 | 1007.1 |
| 20260506051001 | 13 | 0 | 0.0 | 0.0 | 0.15 | 3.17 | 2.21 | 92 | 1007.5 |
| 20260506044000 | 13 | 0 | 0.0 | 0.0 | 0.18 | 3.43 | 2.18 | 93 | 1007.6 |
| 20260506043000 | 13 | 0 | 0.0 | 0.0 | 0.18 | 3.58 | 2.18 | 92 | 1007.7 |
| 20260506042000 | 13 | 0 | 0.0 | 0.0 | 0.18 | 3.76 | 2.18 | 92 | 1007.9 |
| 20260506041001 | 13 | 0 | 0.0 | 0.0 | 0.05 | 3.73 | 2.03 | 91 | 1008.5 |
| 20260506040000 | 13 | 0 | 0.0 | 0.0 | 0.03 | 4.04 | 2.03 | 90 | 1008.5 |
| 20260506035000 | 13 | 0 | 0.0 | 0.0 | 0.03 | 4.11 | 2.01 | 90 | 1008.3 |
| 20260506034001 | 13 | 351 | 0.0 | 1.6 | 0.05 | 4.19 | 2.01 | 90 | 1008.1 |
| 20260506033000 | 13 | 0 | 1.6 | 0.0 | 0.05 | 4.27 | 2.01 | 90 | 1008.3 |
| 20260506031000 | 13 | 0 | 0.0 | 0.0 | 0.08 | 4.47 | 2.01 | 91 | 1008.3 |
| 20260506030001 | 13 | 0 | 0.0 | 0.0 | 0.15 | 4.52 | 2.01 | 92 | 1008.4 |
| 20260506025000 | 13 | 0 | 0.0 | 0.0 | 0.23 | 4.55 | 1.98 | 92 | 1008.9 |
| 20260506024000 | 13 | 0 | 0.0 | 0.0 | 0.36 | 4.55 | 1.96 | 92 | 1009.2 |
| 20260506023000 | 13 | 0 | 0.0 | 0.0 | 0.74 | 4.60 | 1.96 | 92 | 1009.2 |
| 20260506022001 | 13 | 0 | 0.0 | 0.0 | 1.19 | 4.62 | 1.93 | 92 | 1009.3 |
| 20260506021000 | 13 | 0 | 0.0 | 0.0 | 1.30 | 4.65 | 1.93 | 91 | 1009.3 |
| 20260506020001 | 13 | 0 | 0.0 | 0.0 | 1.27 | 4.57 | 1.83 | 91 | 1009.4 |
| 20260506015002 | 13 | 0 | 0.0 | 0.0 | 1.19 | 4.52 | 1.75 | 91 | 1009.9 |
| 20260506014000 | 14 | 0 | 0.0 | 0.0 | 1.09 | 4.39 | 1.57 | 90 | 1010.2 |
| 20260506013000 | 14 | 0 | 0.0 | 0.0 | 0.76 | 4.09 | 1.22 | 92 | 1010.3 |
| 20260506012000 | 15 | 259 | 0.0 | 3.2 | 0.28 | 3.61 | 0.71 | 92 | 1009.7 |
| 20260506005001 | 14 | 0 | 0.0 | 0.0 | 0.15 | 3.48 | 0.51 | 94 | 1009.7 |
| 20260506004002 | 14 | 0 | 0.0 | 0.0 | 0.10 | 3.43 | 0.48 | 93 | 1009.7 |
| 20260506003000 | 14 | 0 | 0.0 | 0.0 | 0.08 | 3.43 | 0.46 | 93 | 1009.8 |
| 20260506001959 | 14 | 0 | 0.0 | 0.0 | 0.05 | 3.40 | 0.43 | 93 | 1009.6 |
| 20260506001000 | 14 | 0 | 0.0 | 0.0 | 0.00 | 3.33 | 0.38 | 93 | 1009.7 |
| 20260506000000 | 15 | 0 | 0.0 | 0.0 | 0.00 | 3.33 | 0.38 | 92 | 1009.9 |
| 20260505235005 | 15 | 0 | 0.0 | 0.0 | 0.00 | 3.33 | 0.38 | 92 | 1010.0 |
| 20260505234001 | 15 | 0 | 0.0 | 0.0 | 0.00 | 3.33 | 0.38 | 92 | 1010.5 |
| 20260505233002 | 15 | 0 | 0.0 | 0.0 | 0.03 | 3.33 | 0.38 | 92 | 1010.5 |
| 20260505232001 | 15 | 0 | 0.0 | 0.0 | 0.36 | 3.33 | 0.38 | 91 | 1010.8 |
| 20260505230000 | 15 | 0 | 0.0 | 0.0 | 0.38 | 3.33 | 0.38 | 92 | 1010.9 |
| 20260505224000 | 15 | 0 | 0.0 | 0.0 | 0.38 | 3.33 | 0.38 | 91 | 1011.1 |
| 20260505223001 | 15 | 0 | 0.0 | 0.0 | 0.36 | 3.33 | 0.36 | 89 | 1011.1 |
| 20260505221000 | 15 | 352 | 0.0 | 4.8 | 0.00 | 2.97 | 0.00 | 88 | 1011.3 |
| 20260505220005 | 15 | 0 | 0.0 | 0.0 | 0.00 | 2.97 | 0.00 | 87 | 1011.1 |
| 20260505215001 | 15 | 0 | 0.0 | 0.0 | 0.00 | 2.97 | 2.97 | 88 | 1011.3 |